To NAV CANADA Home Page Login to a new session Search on AWWS site Feedback and Comments Disclaimer Vers la page française équivalente Tips FAQ What's new on the site To the Forecasts and Observations / NOTAM section To "File a Flight Plan" website Publications and other links Update of the User's profile FIC Telephone Numbers My Weather Data Folder Route Weather Data Regional Weather Data Local Weather Data To the Forecasts and Observations / NOTAM section
Request Generated 06/26/2017 at 03:28:49 UTC . Weather information available at that time is displayed.

METAR/TAF

KINDERSLEY/KINDERSLEY REGIONAL/SK    

METAR CYKY 260300Z 12008KT 15SM FEW120 SCT260 15/08 A3018 RMK AC1CI4
AC TR SLP227 DENSITY ALT 2600FT=
METAR CYKY 260200Z 13006KT 15SM FEW260 19/08 A3020 RMK CI1 SLP230
DENSITY ALT 3000FT=
METAR CYKY 260100Z 15002KT 15SM FEW260 21/05 A3021 RMK CI1 SLP235
DENSITY ALT 3200FT=

CYKY - No TAF is issued for this station

Your time UTC time
Weather data provided by Environment Canada and NAV CANADA